Time,TemperatureF,DewpointF,PressureIn,WindDirection,WindDirectionDegrees,WindSpeedMPH,WindSpeedGustMPH,Humidity,HourlyPrecipIn,Conditions,Clouds,dailyrainin,SoftwareType,DateUTC
2013-02-20 00:13:00,40.5,34.0,29.84,NE,41,1.0,5.0,79,0.00,,,0.00,weatherlink.com 1.10,2013-02-20 08:13:00,
2013-02-20 00:28:00,40.2,34.0,29.85,NNW,334,4.0,7.0,79,0.00,,,0.00,weatherlink.com 1.10,2013-02-20 08:28:00,
2013-02-20 00:43:00,39.6,34.0,29.85,NNE,24,2.0,9.0,80,0.00,,,0.00,weatherlink.com 1.10,2013-02-20 08:43:00,
2013-02-20 00:58:00,39.2,34.0,29.85,NNE,24,1.0,5.0,81,0.00,,,0.00,weatherlink.com 1.10,2013-02-20 08:58:00,
2013-02-20 01:13:00,39.0,34.0,29.85,NE,41,2.0,5.0,82,0.00,,,0.00,weatherlink.com 1.10,2013-02-20 09:13:00,
2013-02-20 01:28:00,38.7,34.0,29.85,NE,37,1.0,3.0,83,0.00,,,0.00,weatherlink.com 1.10,2013-02-20 09:28:00,
2013-02-20 01:43:00,38.4,34.0,29.86,NNW,343,3.0,5.0,84,0.00,,,0.00,weatherlink.com 1.10,2013-02-20 09:43:00,
2013-02-20 01:58:00,38.9,34.0,29.87,NNE,30,3.0,11.0,82,0.00,,,0.00,weatherlink.com 1.10,2013-02-20 09:58:00,
2013-02-20 02:13:00,39.0,34.0,29.87,NNE,25,4.0,8.0,82,0.00,,,0.00,weatherlink.com 1.10,2013-02-20 10:13:00,
2013-02-20 02:28:00,38.9,34.0,29.88,North,11,3.0,6.0,82,0.00,,,0.00,weatherlink.com 1.10,2013-02-20 10:28:00,
2013-02-20 02:43:00,38.7,34.0,29.88,NE,53,3.0,3.0,83,0.00,,,0.00,weatherlink.com 1.10,2013-02-20 10:43:00,
2013-02-20 02:58:00,38.9,34.0,29.88,NNE,25,2.0,6.0,82,0.00,,,0.00,weatherlink.com 1.10,2013-02-20 10:58:00,
2013-02-20 03:13:00,38.8,33.0,29.88,NE,53,1.0,4.0,81,0.00,,,0.00,weatherlink.com 1.10,2013-02-20 11:13:00,
2013-02-20 03:28:00,38.1,33.0,29.88,NE,36,2.0,4.0,83,0.00,,,0.00,weatherlink.com 1.10,2013-02-20 11:28:00,
2013-02-20 03:43:00,38.4,34.0,29.89,NNE,32,2.0,5.0,83,0.00,,,0.00,weatherlink.com 1.10,2013-02-20 11:43:00,
2013-02-20 03:58:00,38.7,33.0,29.89,NE,53,3.0,4.0,81,0.00,,,0.00,weatherlink.com 1.10,2013-02-20 11:58:00,
2013-02-20 04:14:00,38.8,33.0,29.89,ENE,60,2.0,5.0,81,0.00,,,0.00,weatherlink.com 1.10,2013-02-20 12:14:00,
2013-02-20 04:28:00,38.7,34.0,29.89,NE,49,2.0,6.0,82,0.00,,,0.00,weatherlink.com 1.10,2013-02-20 12:28:00,
2013-02-20 04:44:00,38.5,34.0,29.90,NNE,24,2.0,5.0,83,0.00,,,0.00,weatherlink.com 1.10,2013-02-20 12:44:00,
2013-02-20 04:58:00,38.5,34.0,29.90,NE,44,2.0,6.0,83,0.00,,,0.00,weatherlink.com 1.10,2013-02-20 12:58:00,
2013-02-20 05:13:00,38.9,34.0,29.91,NE,41,4.0,6.0,81,0.00,,,0.00,weatherlink.com 1.10,2013-02-20 13:13:00,
2013-02-20 05:28:00,39.3,34.0,29.91,NNE,33,3.0,8.0,80,0.00,,,0.00,weatherlink.com 1.10,2013-02-20 13:28:00,
2013-02-20 05:44:00,39.3,34.0,29.91,NE,44,3.0,7.0,80,0.00,,,0.00,weatherlink.com 1.10,2013-02-20 13:44:00,
2013-02-20 05:58:00,39.5,34.0,29.92,NNE,16,3.0,8.0,79,0.00,,,0.00,weatherlink.com 1.10,2013-02-20 13:58:00,
2013-02-20 06:13:00,39.4,34.0,29.92,NNE,16,4.0,8.0,80,0.00,,,0.00,weatherlink.com 1.10,2013-02-20 14:13:00,
2013-02-20 06:28:00,39.2,34.0,29.92,ENE,63,3.0,7.0,80,0.00,,,0.00,weatherlink.com 1.10,2013-02-20 14:28:00,
2013-02-20 06:43:00,38.8,34.0,29.93,ENE,68,5.0,7.0,82,0.00,,,0.00,weatherlink.com 1.10,2013-02-20 14:43:00,
2013-02-20 06:59:00,38.5,34.0,29.93,NNE,29,7.0,8.0,83,0.00,,,0.00,weatherlink.com 1.10,2013-02-20 14:59:00,
2013-02-20 07:14:00,38.7,34.0,29.94,NE,47,6.0,7.0,83,0.00,,,0.00,weatherlink.com 1.10,2013-02-20 15:14:00,
2013-02-20 07:44:00,40.4,35.0,29.95,NE,41,5.0,7.0,80,0.00,,,0.00,weatherlink.com 1.10,2013-02-20 15:44:00,
2013-02-20 07:59:00,41.2,35.0,29.96,NE,56,3.0,5.0,78,0.00,,,0.00,weatherlink.com 1.10,2013-02-20 15:59:00,
2013-02-20 08:14:00,41.6,35.0,29.96,NE,46,2.0,6.0,77,0.00,,,0.00,weatherlink.com 1.10,2013-02-20 16:14:00,
2013-02-20 08:29:00,42.5,36.0,29.97,ENE,61,2.0,5.0,77,0.00,,,0.00,weatherlink.com 1.10,2013-02-20 16:29:00,
2013-02-20 08:44:00,43.6,36.0,29.97,NE,46,3.0,5.0,74,0.00,,,0.00,weatherlink.com 1.10,2013-02-20 16:44:00,
2013-02-20 08:59:00,44.6,36.0,29.97,NW,309,1.0,9.0,72,0.00,,,0.00,weatherlink.com 1.10,2013-02-20 16:59:00,
2013-02-20 09:14:00,45.6,36.0,29.98,NNW,336,3.0,6.0,69,0.00,,,0.00,weatherlink.com 1.10,2013-02-20 17:14:00,
2013-02-20 09:29:00,46.5,36.0,29.98,WNW,296,4.0,8.0,66,0.00,,,0.00,weatherlink.com 1.10,2013-02-20 17:29:00,
2013-02-20 09:44:00,47.2,36.0,29.98,NNW,343,4.0,5.0,66,0.00,,,0.00,weatherlink.com 1.10,2013-02-20 17:44:00,
2013-02-20 09:59:00,48.1,36.0,29.98,West,272,6.0,8.0,64,0.00,,,0.00,weatherlink.com 1.10,2013-02-20 17:59:00,
2013-02-20 10:14:00,49.0,35.0,29.99,WNW,300,2.0,7.0,60,0.00,,,0.00,weatherlink.com 1.10,2013-02-20 18:14:00,
2013-02-20 10:34:00,49.1,35.0,29.99,NNW,328,4.0,8.0,59,0.00,,,0.00,weatherlink.com 1.10,2013-02-20 18:34:00,
2013-02-20 10:45:00,49.7,36.0,29.99,NW,312,3.0,8.0,59,0.00,,,0.00,weatherlink.com 1.10,2013-02-20 18:45:00,
2013-02-20 11:00:00,50.6,36.0,30.00,NNW,329,3.0,9.0,58,0.00,,,0.00,weatherlink.com 1.10,2013-02-20 19:00:00,
2013-02-20 11:15:00,51.5,37.0,29.99,WNW,283,2.0,9.0,58,0.00,,,0.00,weatherlink.com 1.10,2013-02-20 19:15:00,
2013-02-20 11:29:00,52.7,36.0,29.99,WNW,292,1.0,6.0,54,0.00,,,0.00,weatherlink.com 1.10,2013-02-20 19:29:00,
2013-02-20 11:45:00,53.5,36.0,29.99,NW,322,2.0,8.0,52,0.00,,,0.00,weatherlink.com 1.10,2013-02-20 19:45:00,
2013-02-20 12:00:00,53.6,36.0,29.99,SW,229,4.0,8.0,51,0.00,,,0.00,weatherlink.com 1.10,2013-02-20 20:00:00,
2013-02-20 12:15:00,53.6,39.0,29.99,SW,222,5.0,6.0,58,0.00,,,0.00,weatherlink.com 1.10,2013-02-20 20:15:00,
2013-02-20 12:30:00,53.3,39.0,29.98,WSW,257,2.0,6.0,58,0.00,,,0.00,weatherlink.com 1.10,2013-02-20 20:30:00,
2013-02-20 12:45:00,54.2,39.0,29.98,SSW,213,2.0,8.0,56,0.00,,,0.00,weatherlink.com 1.10,2013-02-20 20:45:00,
2013-02-20 13:00:00,54.9,40.0,29.97,WSW,255,5.0,8.0,57,0.00,,,0.00,weatherlink.com 1.10,2013-02-20 21:00:00,
2013-02-20 13:15:00,55.9,39.0,29.97,SW,215,6.0,8.0,54,0.00,,,0.00,weatherlink.com 1.10,2013-02-20 21:15:00,
2013-02-20 13:30:00,55.5,39.0,29.97,WSW,254,7.0,9.0,55,0.00,,,0.00,weatherlink.com 1.10,2013-02-20 21:30:00,
2013-02-20 13:46:00,55.8,38.0,29.96,WSW,238,6.0,9.0,52,0.00,,,0.00,weatherlink.com 1.10,2013-02-20 21:46:00,
2013-02-20 14:01:00,55.9,38.0,29.96,WSW,245,3.0,8.0,51,0.00,,,0.00,weatherlink.com 1.10,2013-02-20 22:01:00,
2013-02-20 14:15:00,56.8,38.0,29.96,SE,137,3.0,6.0,49,0.00,,,0.00,weatherlink.com 1.10,2013-02-20 22:15:00,
2013-02-20 14:30:00,57.8,39.0,29.96,SW,233,5.0,6.0,49,0.00,,,0.00,weatherlink.com 1.10,2013-02-20 22:30:00,
2013-02-20 14:45:00,58.2,39.0,29.95,SE,131,2.0,8.0,49,0.00,,,0.00,weatherlink.com 1.10,2013-02-20 22:45:00,
2013-02-20 15:00:00,57.4,39.0,29.95,NW,316,1.0,6.0,50,0.00,,,0.00,weatherlink.com 1.10,2013-02-20 23:00:00,
2013-02-20 15:15:00,57.8,37.0,29.95,WNW,299,5.0,9.0,47,0.00,,,0.00,weatherlink.com 1.10,2013-02-20 23:15:00,
2013-02-20 15:31:00,57.7,38.0,29.95,WNW,300,1.0,9.0,49,0.00,,,0.00,weatherlink.com 1.10,2013-02-20 23:31:00,
2013-02-20 15:46:00,57.7,39.0,29.95,SW,214,4.0,8.0,51,0.00,,,0.00,weatherlink.com 1.10,2013-02-20 23:46:00,
2013-02-20 16:01:00,57.8,39.0,29.96,NW,322,5.0,9.0,49,0.00,,,0.00,weatherlink.com 1.10,2013-02-21 00:01:00,
2013-02-20 16:16:00,58.3,38.0,29.96,West,273,4.0,8.0,47,0.00,,,0.00,weatherlink.com 1.10,2013-02-21 00:16:00,
2013-02-20 16:30:00,57.9,39.0,29.96,NW,311,5.0,11.0,49,0.00,,,0.00,weatherlink.com 1.10,2013-02-21 00:30:00,
2013-02-20 16:46:00,57.2,41.0,29.97,NW,308,4.0,10.0,56,0.00,,,0.00,weatherlink.com 1.10,2013-02-21 00:46:00,
2013-02-20 17:01:00,55.9,42.0,29.97,WNW,298,8.0,11.0,59,0.00,,,0.00,weatherlink.com 1.10,2013-02-21 01:01:00,
2013-02-20 17:16:00,55.0,41.0,29.97,West,264,3.0,10.0,59,0.00,,,0.00,weatherlink.com 1.10,2013-02-21 01:16:00,
2013-02-20 17:31:00,53.6,41.0,29.97,NNW,328,5.0,10.0,63,0.00,,,0.00,weatherlink.com 1.10,2013-02-21 01:31:00,
2013-02-20 17:46:00,52.1,41.0,29.98,NW,311,1.0,7.0,66,0.00,,,0.00,weatherlink.com 1.10,2013-02-21 01:46:00,
2013-02-20 18:01:00,51.1,41.0,29.98,WNW,298,3.0,12.0,69,0.00,,,0.00,weatherlink.com 1.10,2013-02-21 02:01:00,
2013-02-20 18:16:00,50.4,41.0,29.99,WNW,302,2.0,8.0,71,0.00,,,0.00,weatherlink.com 1.10,2013-02-21 02:16:00,
2013-02-20 18:31:00,49.9,41.0,29.98,NW,310,0.0,4.0,72,0.00,,,0.00,weatherlink.com 1.10,2013-02-21 02:31:00,
2013-02-20 18:46:00,48.9,41.0,29.99,SSW,206,0.0,0.0,74,0.00,,,0.00,weatherlink.com 1.10,2013-02-21 02:46:00,
2013-02-20 19:01:00,48.1,41.0,29.99,SSW,204,1.0,2.0,76,0.00,,,0.00,weatherlink.com 1.10,2013-02-21 03:01:00,
2013-02-20 19:16:00,47.9,41.0,30.00,ESE,122,0.0,0.0,77,0.00,,,0.00,weatherlink.com 1.10,2013-02-21 03:16:00,
2013-02-20 19:31:00,47.4,41.0,30.00,NW,326,0.0,0.0,78,0.00,,,0.00,weatherlink.com 1.10,2013-02-21 03:31:00,
2013-02-20 19:46:00,47.3,41.0,30.01,NNE,22,0.0,0.0,78,0.00,,,0.00,weatherlink.com 1.10,2013-02-21 03:46:00,
2013-02-20 20:01:00,47.2,41.0,30.02,NNE,29,0.0,0.0,78,0.00,,,0.00,weatherlink.com 1.10,2013-02-21 04:01:00,
2013-02-20 20:16:00,46.6,41.0,30.02,ENE,58,0.0,1.0,80,0.00,,,0.00,weatherlink.com 1.10,2013-02-21 04:16:00,
2013-02-20 20:31:00,46.6,40.0,30.02,NE,46,2.0,3.0,79,0.00,,,0.00,weatherlink.com 1.10,2013-02-21 04:31:00,
2013-02-20 20:46:00,46.6,40.0,30.02,ENE,65,1.0,3.0,79,0.00,,,0.00,weatherlink.com 1.10,2013-02-21 04:46:00,
2013-02-20 21:01:00,46.7,40.0,30.03,ENE,75,0.0,1.0,78,0.00,,,0.00,weatherlink.com 1.10,2013-02-21 05:01:00,
2013-02-20 21:16:00,46.2,40.0,30.03,NE,52,2.0,2.0,80,0.00,,,0.00,weatherlink.com 1.10,2013-02-21 05:16:00,
2013-02-20 21:31:00,46.0,40.0,30.03,NE,41,0.0,2.0,80,0.00,,,0.00,weatherlink.com 1.10,2013-02-21 05:31:00,
2013-02-20 21:46:00,46.2,40.0,30.04,ENE,71,1.0,2.0,79,0.00,,,0.00,weatherlink.com 1.10,2013-02-21 05:46:00,
2013-02-20 22:01:00,45.7,40.0,30.05,ENE,61,1.0,2.0,80,0.00,,,0.00,weatherlink.com 1.10,2013-02-21 06:01:00,
2013-02-20 22:16:00,45.7,40.0,30.05,North,354,0.0,2.0,80,0.00,,,0.00,weatherlink.com 1.10,2013-02-21 06:16:00,
2013-02-20 22:31:00,44.9,39.0,30.05,NE,50,1.0,3.0,81,0.00,,,0.00,weatherlink.com 1.10,2013-02-21 06:31:00,
2013-02-20 22:46:00,44.5,39.0,30.04,ESE,112,0.0,2.0,81,0.00,,,0.00,weatherlink.com 1.10,2013-02-21 06:46:00,
2013-02-20 23:16:00,43.6,38.0,30.04,NE,53,2.0,2.0,82,0.00,,,0.00,weatherlink.com 1.10,2013-02-21 07:16:00,
2013-02-20 23:47:00,42.9,38.0,30.05,East,86,0.0,1.0,84,0.00,,,0.00,weatherlink.com 1.10,2013-02-21 07:47:00,